Location: Chuathbaluk
(61.5726°N, 159.2454°W)
Time: 04:06:39
(UTC+00:00)

FO-99 - Pass Details

Date: 24 January 2021
Orbit: 473 x 506 km, 97.2° (Epoch: 08 March)

Event Time Altitude Azimuth Distance (km) Brightness Sun altitude
Exits shadow 05:14:02 14° 8° (N) 1,463 ? -19.7°
Drops below altitude 10° 05:14:44 10° 1° (N) 1,701 ? -19.8°
Sets 05:17:01 0° 348° (NNW) 2,581 ? -20.1°
